Regional Weather Roundup
Issued by NWS

Home | Current Version | Previous Version | Graphics & Text | Print | Product List | Glossary On
Versions: 1 2 3 4 5 6 7 8 9 10 11 12 13 14 15 16 17 18 19 20 21 22 23 24 25 26 27 28 29 30 31 32 33 34 35 36 37 38 39 40 41 42 43 44 45 46 47 48 49 50
000
ASUS43 KMPX 191901
RWRMN
WEATHER ROUNDUP FOR MINNESOTA
NATIONAL WEATHER SERVICE TWIN CITIES/CHANHASSEN MN
200 PM CDT WED JUL 19 2017


NOTE: "FAIR" INDICATES FEW OR NO CLOUDS BELOW 12,000 FEET WITH NO
SIGNIFICANT WEATHER AND/OR OBSTRUCTIONS TO VISIBILITY. N/A MEANS
CURRENT SKY AND/OR WEATHER CONDITIONS ARE NOT AVAILABLE.

MNZ060>063-068>070-192000-
   Twin Cities Metro

CITY           SKY/WX    TMP DP  RH WIND       PRES   REMARKS
TWIN CITIES    CLOUDY    82  55  39 SE12      30.05F
ST PAUL        PTSUNNY   81  57  43 E12       30.06F
CRYSTAL        CLOUDY    81  52  36 SE7       30.05S
BLAINE         CLOUDY    82  55  39 E9G15     30.06F
LAKEVILLE      CLOUDY    81  59  47 SE9       30.04F
EDEN PRAIRIE   CLOUDY    82  56  40 E9        30.04S
SOUTH ST PAUL  PTSUNNY   82  52  36 SE6       30.05S
LAKE ELMO      FAIR      79  59  50 SE6       30.08S
$$
MNZ001>005-007-008-013>017-022>024-027-028-192000-
   Northwest Minnesota

CITY           SKY/WX    TMP DP  RH WIND       PRES   REMARKS
BEMIDJI        CLOUDY    72  56  57 S16G26    29.97F
HALLOCK        LGT RAIN  64  63  94 E14       29.91F
ROSEAU         PTSUNNY   72  64  78 NW3       29.99F
WARROAD        CLOUDY    70  64  83 CALM      29.99F
CROOKSTON      CLOUDY    75  61  60 SW13      29.95R
FOSSTON        CLOUDY    73  55  53 S17G23    29.95F
DETROIT LAKES  CLOUDY    72  59  64 S18G29    29.94F
MOORHEAD       CLOUDY    73  61  64 S23G32    29.92R
PARK RAPIDS    CLOUDY    72  59  63 S16G22    30.02F
MAHNOMEN       FAIR      73  57  57 S23G31    29.94S
$$
MNZ006-009>011-018-025>026-192000-
   North Central Minnesota

CITY           SKY/WX    TMP DP  RH WIND       PRES   REMARKS
BAUDETTE       CLOUDY    71  62  73 SE7       29.99F
FLAG ISLAND    CLOUDY    68  59  73 S8        29.98F
INTL FALLS     CLOUDY    69  60  73 SE5       30.04R
WASKISH        CLOUDY    73  61  64 S6        30.01F
BIG FORK       CLOUDY    75  63  64 S6        30.04F
LONGVILLE      CLOUDY    72  61  68 S8        30.06F
GRAND RAPIDS   CLOUDY    75  59  57 S14       30.08F
CRANE LAKE     CLOUDY    70  61  73 CALM      30.06S
ORR            CLOUDY    73  57  56 S5        30.04R
COOK           CLOUDY    73  57  56 S6        30.06S
WALKER         FAIR      71  57  60 S13       30.01F
$$
MNZ012-019>021-037-192000-
   Northeast Minnesota

CITY           SKY/WX    TMP DP  RH WIND       PRES   REMARKS
DULUTH         CLOUDY    75  60  59 S9        30.08S
ELY            CLOUDY    75  55  50 SW7       30.06S
HIBBING        CLOUDY    75  57  53 S8        30.06S
EVELETH        CLOUDY    78  44  29 S13       30.08S
DULUTH HARBOR  PTSUNNY   73  63  68 NE3       30.07S
TWO HARBORS    CLOUDY    79  63  57 SW5       30.06S
GRAND MARAIS     N/A     57  52  83 W9        30.05F
G MARAIS ARPRT CLOUDY    70  55  60 S3        30.10F
$$
MNZ029>031-032-039>041-046>048-054>057-064-192000-
   West Central Minnesota

CITY           SKY/WX    TMP DP  RH WIND       PRES   REMARKS
FERGUS FALLS   CLOUDY    66  59  77 SE15      29.98F
WHEATON        LGT RAIN  66  61  82 SE24      30.00F
MORRIS         RAIN      66  63  88 E18       30.00F
ALEXANDRIA     CLOUDY    68  62  81 S12       30.10F
ELBOW LAKE     LGT RAIN  66  62  87 SE14      30.00F
WADENA         CLOUDY    70  61  73 SE6       30.05F
GLENWOOD       TSTM      66  63  88 SE6       30.11F
APPLETON       CLOUDY    66  63  88 E29G35    29.92F
BENSON         RAIN      66  63  88 SE10      30.08F
ORTONVILLE     LGT RAIN  66  63  88 E12G30    29.97F
MADISON        LGT RAIN  70  70 100 E20G26    30.01F
WILLMAR        TSTM      72  64  78 N7        30.11R
$$
MNZ033>034-036-042>043-049>051-058-059-192000-
   Central Minnesota

CITY           SKY/WX    TMP DP  RH WIND       PRES   REMARKS
ST CLOUD       CLOUDY    74  62  66 E3        30.08S
SAUK CENTRE    TSTM      68  64  86 SE6       30.09S
PAYNESVILLE    TSTM      73  61  65 E3        30.10R
AITKIN         CLOUDY    72  61  68 S8        30.09S
PINE RIVER     LGT RAIN  72  61  68 S7        30.11F
BRAINERD       LGT RAIN  70  62  76 S8        30.07F
STAPLES        CLOUDY    68  61  77 SE6       30.06F
LONG PRAIRIE   CLOUDY    68  63  83 E5        30.10F
LITTLE FALLS   RAIN      70  61  73 CALM      30.09F
LITCHFIELD     CLOUDY    77  61  57 CALM      30.09R
BUFFALO        PTSUNNY   80  54  40 CALM      30.08S
MAPLE LAKE     CLOUDY    78  61  55 CALM      30.09S
HUTCHINSON     CLOUDY    78  62  57 NE8       30.07F
$$
MNZ037-044-045-052-053-192000-
   East Central Minnesota

CITY           SKY/WX    TMP DP  RH WIND       PRES   REMARKS
PRINCETON      CLOUDY    81  57  44 SE3       30.09R
MORA           CLOUDY    75  55  50 SW3       30.11R
CAMBRIDGE      CLOUDY    81  61  50 CALM      30.07R
RUSH CITY      CLOUDY    77  58  50 SE6       30.09R
MOOSE LAKE     CLOUDY    77  61  57 SW5       30.08R
HINCKLEY       FAIR      79  59  50 S5        30.10R
CLOQUET        CLOUDY    77  55  47 S7        30.08S
MCGREGOR       CLOUDY    73  59  60 S7        30.10R
$$
MNZ071>073-080-081-089-090-097-098-192000-
   Southwest Minnesota

CITY           SKY/WX    TMP DP  RH WIND       PRES   REMARKS
MONTEVIDEO     CLOUDY    66  63  88 E12       30.04F
GRANITE FALLS  CLOUDY    72  67  85 NE8       30.08R
CANBY          CLOUDY    72  69  92 E13       30.01F
MARSHALL       TSTM      70  68  93 N16       30.08R
REDWOOD FALLS  RAIN      74  65  73 N6        30.03R
OLIVIA         TSTM      72  64  78 CALM      30.06S
PIPESTONE      TSTM      70  64  83 E9G25     30.03R
WINDOM         CLOUDY    82  72  69 SE7       29.99R
WORTHINGTON    CLOUDY    82  73  74 S7        29.99R
JACKSON        MOSUNNY   82  72  69 SE15      29.96F
TRACY          TSTM      79  75  89 N13       30.04R
SLAYTON        RAIN      79  71  77 N3        30.03R
$$
MNZ065>067-074>077-082>085-091>093-192000-
   South Central Minnesota

CITY           SKY/WX    TMP DP  RH WIND       PRES   REMARKS
MANKATO        CLOUDY    81  71  71 SE14      29.98F
NEW ULM        CLOUDY    79  68  69 NE7       30.00F
ST JAMES       CLOUDY    81  73  78 E13       29.96F
FAIRMONT       PTSUNNY   86  75  69 SE20      29.95F HX  95
GLENCOE        CLOUDY    78  64  62 NE3       30.05R
FARIBAULT      CLOUDY    81  66  61 E12       30.03F
OWATONNA       CLOUDY    84  70  61 SE14      30.03F
WASECA         CLOUDY    81  70  69 SE12G20   30.03F
ALBERT LEA     PTSUNNY   84  72  65 SE10G17   30.03F
$$
MNZ078>079-086>088-094>096-192000-
   Southeast Minnesota

CITY           SKY/WX    TMP DP  RH WIND       PRES   REMARKS
ROCHESTER      PTSUNNY   81  71  71 SE10      30.07F
RED WING       MOSUNNY   84  50  30 SE12      30.04F
STANTON        CLOUDY    82  62  50 SE8       30.03F
DODGE CENTER   CLOUDY    81  70  69 SE12      30.06F
WINONA         PTSUNNY   81  61  50 SE10      30.07F
AUSTIN         PTSUNNY   82  72  69 S6        30.05F
PRESTON        PTSUNNY   82  68  61 SE7       30.09S
$$
ABBREVIATIONS USED IN REMARKS
   TC - TEMPERATURES IN CELSIUS
  WCI - WIND CHILL INDEX
   HX - HEAT INDEX
  VSB - VISIBILITY
$$




USA.gov is the U.S. government's official web portal to all federal, state and local government web resources and services.